Hourly Weather Kistapolca

Today, 25 October, Sunday

Time Temperature Precipitation Wind Pressure Humidity
00:00 +15°C° 1.4 mm 1 mps 753 mmHg 94%
01:00 +15°C° 1.4 mm 2 mps 752 mmHg 95%
02:00 +15°C° 0.6 mm 1 mps 752 mmHg 95%
03:00 +15°C° 0.6 mm 1 mps 752 mmHg 95%
04:00 +15°C° 0.6 mm 1 mps 751 mmHg 95%
05:00 +14°C° 0.9 mm 1 mps 751 mmHg 96%
06:00 +14°C° 0.9 mm 1 mps 751 mmHg 96%
07:00 +14°C° 0.9 mm 1 mps 751 mmHg 96%
08:00 +14°C° 0.6 mm 1 mps 751 mmHg 95%
09:00 +14°C° 0.6 mm 1 mps 751 mmHg 94%
10:00 +14°C° 0.6 mm 1 mps 751 mmHg 94%
11:00 +14°C° 0.3 mm 2 mps 751 mmHg 93%
12:00 +14°C° 0.3 mm 2 mps 751 mmHg 92%
13:00 +15°C° 0.3 mm 2 mps 751 mmHg 92%
14:00 +15°C° 0 mm 2 mps 751 mmHg 92%
15:00 +15°C° 0 mm 1 mps 751 mmHg 92%
16:00 +15°C° 0 mm 1 mps 750 mmHg 92%
17:00 +14°C° 0 mm 1 mps 751 mmHg 92%
18:00 +14°C° 0 mm 1 mps 751 mmHg 92%
19:00 +14°C° 0 mm 1 mps 751 mmHg 93%
20:00 +13°C° 0 mm 1 mps 751 mmHg 93%
21:00 +13°C° 0 mm 1 mps 751 mmHg 94%
22:00 +13°C° 0 mm 1 mps 751 mmHg 95%
23:00 +12°C° 0 mm 1 mps 751 mmHg 95%

Tomorrow, 26 October, Monday

Time Temperature Precipitation Wind Pressure Humidity
00:00 +12°C° 0 mm 1 mps 751 mmHg 95%
01:00 +12°C° 0 mm 1 mps 750 mmHg 95%
02:00 +12°C° 0 mm 2 mps 750 mmHg 95%
03:00 +12°C° 0 mm 2 mps 750 mmHg 95%
04:00 +12°C° 0 mm 2 mps 750 mmHg 94%
05:00 +12°C° 0 mm 2 mps 750 mmHg 94%
06:00 +11°C° 0 mm 3 mps 750 mmHg 93%
07:00 +11°C° 0 mm 3 mps 750 mmHg 92%
08:00 +13°C° 0 mm 3 mps 750 mmHg 84%
09:00 +14°C° 0 mm 4 mps 750 mmHg 75%
10:00 +17°C° 0 mm 4 mps 750 mmHg 67%
11:00 +18°C° 0 mm 4 mps 750 mmHg 63%
12:00 +19°C° 0 mm 4 mps 750 mmHg 58%
13:00 +21°C° 0 mm 4 mps 750 mmHg 54%
14:00 +20°C° 0 mm 4 mps 749 mmHg 57%
15:00 +19°C° 0 mm 3 mps 749 mmHg 60%
16:00 +19°C° 0 mm 2 mps 749 mmHg 64%
17:00 +18°C° 0 mm 2 mps 749 mmHg 66%
18:00 +17°C° 0 mm 2 mps 750 mmHg 69%
19:00 +16°C° 0 mm 2 mps 750 mmHg 71%
20:00 +15°C° 0 mm 2 mps 750 mmHg 72%
21:00 +15°C° 0 mm 2 mps 750 mmHg 73%
22:00 +14°C° 0 mm 2 mps 750 mmHg 75%
23:00 +14°C° 0 mm 2 mps 750 mmHg 76%

Day after tomorrow, 27 October, Tuesday

Time Temperature Precipitation Wind Pressure Humidity
00:00 +14°C° 0 mm 2 mps 750 mmHg 78%
01:00 +13°C° 0 mm 2 mps 750 mmHg 80%
02:00 +13°C° 0 mm 2 mps 750 mmHg 81%
03:00 +13°C° 0 mm 2 mps 749 mmHg 82%
04:00 +12°C° 0 mm 2 mps 749 mmHg 83%
05:00 +12°C° 0 mm 2 mps 749 mmHg 83%
06:00 +12°C° 0 mm 2 mps 749 mmHg 83%
07:00 +12°C° 0 mm 2 mps 750 mmHg 83%
08:00 +14°C° 0 mm 2 mps 750 mmHg 76%
09:00 +16°C° 0 mm 2 mps 750 mmHg 69%
10:00 +17°C° 0 mm 2 mps 750 mmHg 62%
11:00 +18°C° 0 mm 2 mps 749 mmHg 58%
12:00 +19°C° 0 mm 2 mps 749 mmHg 55%
13:00 +20°C° 0 mm 2 mps 749 mmHg 51%
14:00 +19°C° 0 mm 2 mps 749 mmHg 54%
15:00 +20°C° 0 mm 1 mps 749 mmHg 58%
16:00 +19°C° 0 mm 1 mps 749 mmHg 61%
17:00 +18°C° 0 mm 1 mps 749 mmHg 63%
18:00 +16°C° 0 mm 1 mps 749 mmHg 64%
19:00 +16°C° 0 mm 1 mps 750 mmHg 66%
20:00 +15°C° 0 mm 1 mps 750 mmHg 68%
21:00 +15°C° 0 mm 1 mps 750 mmHg 69%
22:00 +14°C° 0 mm 1 mps 751 mmHg 70%
23:00 +14°C° 0 mm 1 mps 751 mmHg 71%

28 October, Wednesday

Time Temperature Precipitation Wind Pressure Humidity
00:00 +14°C° 0 mm 1 mps 751 mmHg 73%
01:00 +14°C° 0 mm 1 mps 751 mmHg 74%
02:00 +13°C° 0 mm 1 mps 751 mmHg 77%
03:00 +13°C° 0 mm 1 mps 751 mmHg 79%
04:00 +12°C° 0 mm 1 mps 751 mmHg 82%
05:00 +12°C° 0 mm 1 mps 752 mmHg 83%
06:00 +12°C° 0 mm 1 mps 752 mmHg 85%
07:00 +12°C° 0 mm 1 mps 752 mmHg 86%
08:00 +13°C° 0 mm 1 mps 752 mmHg 80%
09:00 +15°C° 0 mm 1 mps 753 mmHg 74%
10:00 +16°C° 0 mm 1 mps 753 mmHg 68%
11:00 +18°C° 0 mm 1 mps 753 mmHg 64%
12:00 +19°C° 0 mm 1 mps 752 mmHg 60%
13:00 +19°C° 0 mm 2 mps 752 mmHg 56%
14:00 +20°C° 0 mm 1 mps 752 mmHg 59%
15:00 +19°C° 0 mm 1 mps 752 mmHg 62%
16:00 +19°C° 0 mm 1 mps 752 mmHg 65%
17:00 +18°C° 0 mm 1 mps 752 mmHg 69%
18:00 +16°C° 0 mm 1 mps 753 mmHg 73%
19:00 +15°C° 0 mm 1 mps 753 mmHg 77%
20:00 +14°C° 0 mm 1 mps 753 mmHg 78%
21:00 +14°C° 0 mm 1 mps 753 mmHg 80%
22:00 +14°C° 0 mm 1 mps 753 mmHg 81%
23:00 +13°C° 0 mm 1 mps 753 mmHg 83%

29 October, Thursday

Time Temperature Precipitation Wind Pressure Humidity
00:00 +13°C° 0 mm 1 mps 753 mmHg 85%
01:00 +13°C° 0 mm 1 mps 753 mmHg 87%
02:00 +12°C° 0 mm 1 mps 753 mmHg 88%
03:00 +12°C° 0 mm 1 mps 753 mmHg 89%
04:00 +12°C° 0 mm 1 mps 754 mmHg 89%
05:00 +12°C° 0 mm 1 mps 754 mmHg 90%
06:00 +12°C° 0 mm 1 mps 754 mmHg 90%
07:00 +12°C° 0 mm 1 mps 754 mmHg 91%
08:00 +13°C° 0 mm 1 mps 755 mmHg 84%
09:00 +15°C° 0 mm 1 mps 755 mmHg 77%
10:00 +17°C° 0 mm 2 mps 755 mmHg 70%
11:00 +17°C° 0 mm 2 mps 755 mmHg 67%
12:00 +18°C° 0 mm 2 mps 756 mmHg 65%
13:00 +19°C° 0 mm 2 mps 756 mmHg 62%
14:00 +18°C° 0 mm 2 mps 756 mmHg 65%
15:00 +18°C° 0 mm 2 mps 756 mmHg 67%
16:00 +17°C° 0 mm 2 mps 756 mmHg 70%
17:00 +16°C° 0 mm 2 mps 757 mmHg 73%
18:00 +15°C° 0 mm 2 mps 757 mmHg 76%
19:00 +14°C° 0 mm 2 mps 758 mmHg 79%
20:00 +14°C° 0 mm 2 mps 758 mmHg 81%
21:00 +13°C° 0 mm 2 mps 759 mmHg 83%
22:00 +13°C° 0 mm 2 mps 759 mmHg 85%
23:00 +13°C° 0 mm 2 mps 759 mmHg 86%

30 October, Friday

Time Temperature Precipitation Wind Pressure Humidity
00:00 +12°C° 0 mm 1 mps 760 mmHg 87%
01:00 +12°C° 0 mm 1 mps 760 mmHg 88%
02:00 +12°C° 0 mm 1 mps 760 mmHg 88%
03:00 +12°C° 0 mm 1 mps 760 mmHg 87%
04:00 +11°C° 0 mm 1 mps 760 mmHg 87%
05:00 +11°C° 0 mm 1 mps 760 mmHg 86%
06:00 +11°C° 0 mm 1 mps 760 mmHg 85%
07:00 +11°C° 0 mm 1 mps 761 mmHg 84%
08:00 +12°C° 0 mm 0 mps 761 mmHg 77%
09:00 +13°C° 0 mm 0 mps 761 mmHg 70%
10:00 +15°C° 0 mm 0 mps 761 mmHg 62%
11:00 +16°C° 0 mm 0 mps 761 mmHg 58%
12:00 +19°C° 0 mm 1 mps 761 mmHg 53%
13:00 +20°C° 0 mm 1 mps 760 mmHg 49%
14:00 +19°C° 0 mm 1 mps 760 mmHg 52%
15:00 +19°C° 0 mm 1 mps 760 mmHg 55%
16:00 +18°C° 0 mm 1 mps 760 mmHg 57%
17:00 +16°C° 0 mm 1 mps 760 mmHg 60%
18:00 +15°C° 0 mm 1 mps 760 mmHg 63%
19:00 +14°C° 0 mm 1 mps 760 mmHg 66%
20:00 +14°C° 0 mm 1 mps 760 mmHg 68%
21:00 +14°C° 0 mm 1 mps 760 mmHg 69%
22:00 +13°C° 0 mm 1 mps 760 mmHg 71%
23:00 +13°C° 0 mm 1 mps 760 mmHg 74%
Show more